| time (UTC) | temp F | wind direction | speed MPH | gust MPH | rain 1hr in | rain 24hr in | rain mn in | humidity % | barometer mb |
| 20260905032218 | 83 | 206 | 2.0 | 6.0 | 0.00 | 0.01 | 0.01 | 1 | 1013.6 |
| 20260905031716 | 84 | 168 | 2.0 | 6.0 | 0.00 | 0.01 | 0.01 | 1 | 1013.5 |
| 20260905030613 | 84 | 190 | 2.0 | 5.0 | 0.00 | 0.01 | 0.01 | 1 | 1013.5 |
| 20260905030113 | 84 | 167 | 1.0 | 5.0 | 0.00 | 0.01 | 0.01 | 1 | 1013.4 |
| 20260905025612 | 84 | 200 | 1.0 | 4.0 | 0.00 | 0.01 | 0.01 | 1 | 1013.4 |
| 20260905025114 | 84 | 202 | 1.0 | 6.0 | 0.00 | 0.01 | 0.01 | 1 | 1013.4 |
| 20260905025110 | 84 | 188 | 2.0 | 6.0 | 0.00 | 0.01 | 0.01 | 1 | 1013.3 |
| 20260905024109 | 84 | 189 | 2.0 | 6.0 | 0.00 | 0.01 | 0.01 | 1 | 1013.3 |
| 20260905023606 | 85 | 158 | 2.0 | 6.0 | 0.00 | 0.01 | 0.01 | 1 | 1013.3 |
| 20260905023104 | 85 | 185 | 2.0 | 6.0 | 0.00 | 0.01 | 0.01 | 1 | 1013.2 |
| 20260905022604 | 85 | 196 | 2.0 | 6.0 | 0.00 | 0.01 | 0.01 | 1 | 1013.1 |
| 20260905022105 | 85 | 179 | 2.0 | 7.0 | 0.00 | 0.01 | 0.01 | 1 | 1013.0 |
| 20260905021608 | 85 | 157 | 2.0 | 7.0 | 0.00 | 0.01 | 0.01 | 1 | 1012.9 |
| 20260905021604 | 85 | 156 | 2.0 | 7.0 | 0.00 | 0.01 | 0.01 | 1 | 1012.9 |
| 20260905020606 | 86 | 166 | 2.0 | 6.0 | 0.00 | 0.01 | 0.01 | 4 | 1012.8 |
| 20260905020602 | 85 | 167 | 2.0 | 7.0 | 0.00 | 0.01 | 0.01 | 1 | 1012.8 |
| 20260905020207 | 86 | 144 | 2.0 | 6.0 | 0.00 | 0.01 | 0.01 | 7 | 1012.9 |
| 20260905015104 | 86 | 202 | 2.0 | 5.0 | 0.00 | 0.01 | 0.01 | 13 | 1012.7 |
| 20260905015100 | 86 | 168 | 2.0 | 6.0 | 0.00 | 0.01 | 0.01 | 10 | 1012.7 |
| 20260905014100 | 87 | 150 | 2.0 | 6.0 | 0.00 | 0.01 | 0.01 | 15 | 1012.6 |
| 20260905013559 | 87 | 170 | 2.0 | 7.0 | 0.00 | 0.01 | 0.01 | 17 | 1012.5 |
| 20260905013100 | 87 | 149 | 3.0 | 7.0 | 0.00 | 0.01 | 0.01 | 19 | 1012.5 |
| 20260905012601 | 87 | 120 | 3.0 | 7.0 | 0.00 | 0.01 | 0.01 | 21 | 1012.5 |
| 20260905012057 | 87 | 203 | 2.0 | 8.0 | 0.00 | 0.01 | 0.01 | 23 | 1012.4 |
| 20260905011556 | 88 | 213 | 2.0 | 8.0 | 0.00 | 0.01 | 0.01 | 25 | 1012.3 |
| 20260905011056 | 88 | 184 | 2.0 | 8.0 | 0.00 | 0.01 | 0.01 | 26 | 1012.3 |
| 20260905010556 | 88 | 216 | 3.0 | 8.0 | 0.00 | 0.01 | 0.01 | 28 | 1012.2 |
| 20260905010056 | 88 | 126 | 2.0 | 7.0 | 0.00 | 0.01 | 0.01 | 29 | 1012.1 |
| 20260905005554 | 89 | 157 | 3.0 | 7.0 | 0.00 | 0.01 | 0.01 | 30 | 1012.0 |
| 20260905005052 | 89 | 149 | 3.0 | 8.0 | 0.00 | 0.01 | 0.01 | 31 | 1012.0 |
| 20260905004550 | 89 | 146 | 4.0 | 10.0 | 0.00 | 0.01 | 0.01 | 32 | 1012.1 |
| 20260905004050 | 89 | 154 | 3.0 | 10.0 | 0.00 | 0.01 | 0.01 | 33 | 1011.9 |
| 20260905003551 | 90 | 211 | 3.0 | 12.0 | 0.00 | 0.01 | 0.01 | 34 | 1011.8 |
| 20260905003050 | 90 | 196 | 3.0 | 12.0 | 0.00 | 0.01 | 0.01 | 35 | 1011.7 |
| 20260905002548 | 91 | 186 | 3.0 | 12.0 | 0.00 | 0.01 | 0.01 | 36 | 1011.8 |
| 20260905002046 | 91 | 143 | 3.0 | 9.0 | 0.00 | 0.01 | 0.01 | 37 | 1011.7 |
| 20260905001546 | 91 | 141 | 4.0 | 11.0 | 0.00 | 0.01 | 0.01 | 37 | 1011.6 |
| 20260905001046 | 92 | 135 | 4.0 | 11.0 | 0.00 | 0.01 | 0.01 | 38 | 1011.6 |
| 20260905000550 | 93 | 192 | 4.0 | 12.0 | 0.00 | 0.01 | 0.01 | 37 | 1011.4 |
| 20260905000545 | 92 | 192 | 4.0 | 12.0 | 0.00 | 0.01 | 0.01 | 37 | 1011.5 |
| 20260905000151 | 93 | 189 | 3.0 | 12.0 | 0.00 | 0.01 | 0.01 | 37 | 1011.4 |
| 20260904235044 | 93 | 157 | 2.0 | 8.0 | 0.00 | 0.01 | 0.01 | 37 | 1011.3 |
| 20260904234544 | 94 | 156 | 2.0 | 10.0 | 0.00 | 0.01 | 0.01 | 37 | 1011.3 |
| 20260904234148 | 94 | 198 | 3.0 | 9.0 | 0.00 | 0.01 | 0.01 | 36 | 1011.3 |
| 20260904234047 | 94 | 201 | 2.0 | 8.0 | 0.00 | 0.01 | 0.01 | 36 | 1011.4 |
| 20260904234042 | 94 | 153 | 2.0 | 10.0 | 0.00 | 0.01 | 0.01 | 36 | 1011.5 |
| 20260904232541 | 94 | 136 | 3.0 | 12.0 | 0.00 | 0.01 | 0.01 | 36 | 1011.3 |
| 20260904232042 | 94 | 198 | 2.0 | 12.0 | 0.00 | 0.01 | 0.01 | 36 | 1011.3 |
| 20260904231539 | 94 | 80 | 2.0 | 7.0 | 0.00 | 0.01 | 0.01 | 36 | 1011.2 |
| 20260904231040 | 94 | 104 | 2.0 | 7.0 | 0.00 | 0.01 | 0.01 | 36 | 1011.2 |
| 20260904230538 | 95 | 156 | 2.0 | 8.0 | 0.00 | 0.01 | 0.01 | 35 | 1011.3 |
| 20260904230042 | 95 | 120 | 3.0 | 9.0 | 0.00 | 0.01 | 0.01 | 35 | 1011.3 |
| 20260904230038 | 95 | 219 | 2.0 | 8.0 | 0.00 | 0.01 | 0.01 | 35 | 1011.2 |
| 20260904225037 | 95 | 159 | 3.0 | 9.0 | 0.00 | 0.01 | 0.01 | 34 | 1011.3 |
| 20260904224537 | 95 | 230 | 3.0 | 13.0 | 0.00 | 0.01 | 0.01 | 35 | 1011.3 |
| 20260904224038 | 95 | 182 | 3.0 | 13.0 | 0.00 | 0.01 | 0.01 | 34 | 1011.4 |
| 20260904223538 | 95 | 355 | 3.0 | 12.0 | 0.00 | 0.01 | 0.01 | 35 | 1011.4 |
| 20260904223039 | 95 | 180 | 4.0 | 12.0 | 0.00 | 0.01 | 0.01 | 35 | 1011.4 |
| 20260904222537 | 95 | 113 | 4.0 | 10.0 | 0.00 | 0.01 | 0.01 | 35 | 1011.4 |
| 20260904222037 | 95 | 178 | 4.0 | 11.0 | 0.00 | 0.01 | 0.01 | 35 | 1011.4 |
| 20260904221538 | 95 | 162 | 3.0 | 11.0 | 0.00 | 0.01 | 0.01 | 35 | 1011.5 |
| 20260904221038 | 95 | 136 | 3.0 | 10.0 | 0.00 | 0.01 | 0.01 | 35 | 1011.4 |
| 20260904220537 | 96 | 208 | 3.0 | 10.0 | 0.00 | 0.01 | 0.01 | 35 | 1011.6 |
| 20260904220038 | 96 | 116 | 3.0 | 10.0 | 0.00 | 0.01 | 0.01 | 35 | 1011.7 |
| 20260904215538 | 96 | 89 | 4.0 | 11.0 | 0.00 | 0.01 | 0.01 | 35 | 1011.7 |
| 20260904215038 | 96 | 149 | 3.0 | 11.0 | 0.00 | 0.01 | 0.01 | 35 | 1011.7 |
| 20260904214538 | 96 | 60 | 4.0 | 10.0 | 0.00 | 0.01 | 0.01 | 34 | 1011.7 |
| 20260904214035 | 96 | 171 | 4.0 | 11.0 | 0.00 | 0.01 | 0.01 | 34 | 1011.8 |
| 20260904213535 | 96 | 167 | 4.0 | 11.0 | 0.00 | 0.01 | 0.01 | 34 | 1011.8 |
| 20260904213034 | 96 | 122 | 3.0 | 10.0 | 0.00 | 0.01 | 0.01 | 34 | 1011.9 |
| 20260904212533 | 96 | 188 | 4.0 | 10.0 | 0.00 | 0.01 | 0.01 | 34 | 1011.9 |
| 20260904212033 | 96 | 171 | 4.0 | 9.0 | 0.00 | 0.01 | 0.01 | 34 | 1012.0 |
| 20260904211533 | 96 | 107 | 2.0 | 7.0 | 0.00 | 0.01 | 0.01 | 34 | 1012.0 |
| 20260904211033 | 96 | 169 | 3.0 | 10.0 | 0.00 | 0.01 | 0.01 | 34 | 1011.9 |
| 20260904210532 | 97 | 103 | 4.0 | 10.0 | 0.00 | 0.01 | 0.01 | 33 | 1012.0 |
| 20260904210035 | 96 | 105 | 3.0 | 9.0 | 0.00 | 0.01 | 0.01 | 33 | 1012.1 |
| 20260904210031 | 97 | 221 | 3.0 | 9.0 | 0.00 | 0.01 | 0.01 | 33 | 1012.1 |
| 20260904205636 | 96 | 189 | 3.0 | 9.0 | 0.00 | 0.01 | 0.01 | 33 | 1012.2 |
| 20260904204532 | 96 | 146 | 3.0 | 12.0 | 0.00 | 0.01 | 0.01 | 33 | 1012.3 |
| 20260904204037 | 96 | 173 | 3.0 | 12.0 | 0.00 | 0.01 | 0.01 | 33 | 1012.3 |
| 20260904204031 | 96 | 150 | 3.0 | 12.0 | 0.00 | 0.01 | 0.01 | 33 | 1012.2 |
| 20260904203032 | 97 | 84 | 2.0 | 8.0 | 0.00 | 0.01 | 0.01 | 32 | 1012.3 |
| 20260904202532 | 97 | 108 | 2.0 | 8.0 | 0.00 | 0.01 | 0.01 | 32 | 1012.4 |
| 20260904202031 | 97 | 96 | 3.0 | 7.0 | 0.00 | 0.01 | 0.01 | 32 | 1012.4 |
| 20260904201530 | 97 | 192 | 3.0 | 10.0 | 0.00 | 0.01 | 0.01 | 32 | 1012.5 |
| 20260904201029 | 97 | 184 | 4.0 | 10.0 | 0.00 | 0.01 | 0.01 | 31 | 1012.5 |
| 20260904200529 | 96 | 180 | 4.0 | 13.0 | 0.00 | 0.01 | 0.01 | 31 | 1012.6 |
| 20260904200033 | 96 | 162 | 3.0 | 9.0 | 0.00 | 0.01 | 0.01 | 32 | 1012.7 |
| 20260904200029 | 95 | 126 | 4.0 | 13.0 | 0.00 | 0.01 | 0.01 | 32 | 1012.5 |
| 20260904195030 | 97 | 194 | 4.0 | 10.0 | 0.00 | 0.01 | 0.01 | 31 | 1012.8 |
| 20260904194533 | 96 | 236 | 3.0 | 9.0 | 0.00 | 0.01 | 0.01 | 31 | 1012.9 |
| 20260904194529 | 97 | 169 | 3.0 | 10.0 | 0.00 | 0.01 | 0.01 | 30 | 1012.8 |
| 20260904193529 | 94 | 89 | 3.0 | 9.0 | 0.00 | 0.01 | 0.01 | 31 | 1012.9 |
| 20260904193027 | 94 | 153 | 3.0 | 9.0 | 0.00 | 0.01 | 0.01 | 31 | 1013.0 |
| 20260904192526 | 94 | 161 | 3.0 | 7.0 | 0.00 | 0.01 | 0.01 | 31 | 1013.0 |
| 20260904192026 | 94 | 147 | 4.0 | 9.0 | 0.00 | 0.01 | 0.01 | 31 | 1013.2 |
| 20260904191525 | 94 | 189 | 3.0 | 9.0 | 0.00 | 0.01 | 0.01 | 31 | 1013.2 |
| 20260904191025 | 94 | 107 | 2.0 | 9.0 | 0.00 | 0.01 | 0.01 | 30 | 1013.3 |
| 20260904190525 | 94 | 180 | 2.0 | 8.0 | 0.00 | 0.01 | 0.01 | 30 | 1013.4 |
| 20260904190026 | 94 | 175 | 3.0 | 8.0 | 0.00 | 0.01 | 0.01 | 29 | 1013.5 |
| 20260904185523 | 94 | 158 | 3.0 | 8.0 | 0.00 | 0.01 | 0.01 | 29 | 1013.5 |
| 20260904185023 | 94 | 156 | 3.0 | 9.0 | 0.00 | 0.01 | 0.01 | 29 | 1013.5 |
| 20260904184523 | 94 | 134 | 2.0 | 9.0 | 0.00 | 0.01 | 0.01 | 28 | 1013.7 |
| 20260904184023 | 94 | 100 | 2.0 | 4.0 | 0.00 | 0.01 | 0.01 | 28 | 1013.6 |
| 20260904183523 | 94 | 154 | 3.0 | 9.0 | 0.00 | 0.01 | 0.01 | 28 | 1013.7 |
| 20260904183022 | 94 | 150 | 3.0 | 9.0 | 0.00 | 0.01 | 0.01 | 28 | 1013.7 |
| 20260904182523 | 94 | 172 | 3.0 | 10.0 | 0.00 | 0.01 | 0.01 | 26 | 1013.7 |
| 20260904182023 | 93 | 159 | 4.0 | 10.0 | 0.00 | 0.01 | 0.01 | 26 | 1013.7 |
| 20260904181522 | 93 | 174 | 3.0 | 7.0 | 0.00 | 0.01 | 0.01 | 25 | 1014.0 |
| 20260904181021 | 93 | 148 | 3.0 | 7.0 | 0.00 | 0.01 | 0.01 | 25 | 1014.0 |
| 20260904180523 | 93 | 171 | 3.0 | 8.0 | 0.00 | 0.01 | 0.01 | 26 | 1014.2 |
| 20260904180026 | 92 | 225 | 4.0 | 10.0 | 0.00 | 0.01 | 0.01 | 25 | 1014.2 |
| 20260904180021 | 93 | 180 | 3.0 | 8.0 | 0.00 | 0.01 | 0.01 | 24 | 1014.2 |
| 20260904175019 | 92 | 123 | 3.0 | 11.0 | 0.00 | 0.01 | 0.01 | 26 | 1014.3 |
| 20260904174519 | 92 | 159 | 2.0 | 11.0 | 0.00 | 0.01 | 0.01 | 25 | 1014.4 |
| 20260904174022 | 92 | 200 | 3.0 | 10.0 | 0.00 | 0.01 | 0.01 | 20 | 1014.5 |
| 20260904174017 | 92 | 240 | 3.0 | 10.0 | 0.00 | 0.01 | 0.01 | 24 | 1014.5 |
| 20260904173021 | 90 | 139 | 4.0 | 10.0 | 0.00 | 0.01 | 0.01 | 19 | 1014.6 |
| 20260904173017 | 91 | 223 | 4.0 | 9.0 | 0.00 | 0.01 | 0.01 | 18 | 1014.5 |
| 20260904172017 | 90 | 171 | 4.0 | 11.0 | 0.00 | 0.01 | 0.01 | 16 | 1014.6 |
| 20260904171514 | 90 | 169 | 3.0 | 11.0 | 0.00 | 0.01 | 0.01 | 14 | 1014.7 |
| 20260904171014 | 90 | 150 | 3.0 | 8.0 | 0.00 | 0.01 | 0.01 | 13 | 1014.8 |
| 20260904170514 | 91 | 162 | 3.0 | 8.0 | 0.00 | 0.01 | 0.01 | 14 | 1014.8 |
| 20260904170019 | 91 | 223 | 4.0 | 8.0 | 0.00 | 0.01 | 0.01 | 16 | 1014.8 |
| 20260904170015 | 91 | 157 | 3.0 | 8.0 | 0.00 | 0.01 | 0.01 | 14 | 1014.8 |
| 20260904165014 | 91 | 211 | 4.0 | 10.0 | 0.00 | 0.01 | 0.01 | 15 | 1014.8 |
| 20260904164513 | 90 | 222 | 5.0 | 12.0 | 0.00 | 0.01 | 0.01 | 13 | 1014.7 |
| 20260904164012 | 90 | 217 | 4.0 | 12.0 | 0.00 | 0.01 | 0.01 | 10 | 1014.7 |
| 20260904163514 | 90 | 177 | 4.0 | 15.0 | 0.00 | 0.01 | 0.01 | 10 | 1014.7 |
| 20260904163013 | 90 | 138 | 4.0 | 15.0 | 0.00 | 0.01 | 0.01 | 10 | 1014.8 |
| 20260904162513 | 89 | 171 | 2.0 | 8.0 | 0.00 | 0.01 | 0.01 | 2 | 1014.8 |
| 20260904162012 | 89 | 252 | 3.0 | 8.0 | 0.00 | 0.01 | 0.01 | 3 | 1014.8 |
| 20260904161510 | 89 | 237 | 4.0 | 13.0 | 0.00 | 0.01 | 0.01 | 1 | 1014.8 |
| 20260904161011 | 88 | 138 | 4.0 | 13.0 | 0.00 | 0.01 | 0.01 | 1 | 1014.8 |
| 20260904160511 | 87 | 171 | 2.0 | 7.0 | 0.00 | 0.01 | 0.01 | 1 | 1014.8 |
| 20260904160011 | 87 | 198 | 2.0 | 7.0 | 0.00 | 0.01 | 0.01 | 1 | 1014.8 |
| 20260904155509 | 86 | 185 | 1.0 | 7.0 | 0.00 | 0.01 | 0.01 | 1 | 1014.8 |
| 20260904155009 | 86 | 149 | 2.0 | 6.0 | 0.00 | 0.01 | 0.01 | 1 | 1014.8 |
| 20260904154508 | 86 | 231 | 2.0 | 6.0 | 0.00 | 0.01 | 0.01 | 1 | 1014.8 |
| 20260904154006 | 86 | 219 | 1.0 | 4.0 | 0.00 | 0.01 | 0.01 | 1 | 1014.8 |
| 20260904153511 | 86 | 242 | 2.0 | 5.0 | 0.00 | 0.01 | 0.01 | 1 | 1014.7 |
| 20260904153507 | 86 | 244 | 2.0 | 4.0 | 0.00 | 0.01 | 0.01 | 1 | 1014.8 |
| 20260904152505 | 86 | 275 | 1.0 | 5.0 | 0.00 | 0.01 | 0.01 | 1 | 1014.8 |
| 20260904152005 | 86 | 294 | 1.0 | 6.0 | 0.00 | 0.01 | 0.01 | 1 | 1014.8 |
| 20260904151505 | 85 | 171 | 2.0 | 9.0 | 0.00 | 0.01 | 0.01 | 1 | 1014.8 |
| 20260904151004 | 85 | 191 | 3.0 | 10.0 | 0.00 | 0.01 | 0.01 | 1 | 1014.9 |
| 20260904150505 | 84 | 173 | 3.0 | 10.0 | 0.00 | 0.01 | 0.01 | 1 | 1014.9 |
| 20260904150004 | 83 | 200 | 2.0 | 11.0 | 0.00 | 0.01 | 0.01 | 1 | 1014.8 |
| 20260904145509 | 82 | 192 | 2.0 | 8.0 | 0.00 | 0.01 | 0.01 | 1 | 1014.7 |
| 20260904145505 | 82 | 190 | 3.0 | 11.0 | 0.00 | 0.01 | 0.01 | 1 | 1014.8 |
| 20260904144502 | 81 | 155 | 2.0 | 6.0 | 0.00 | 0.01 | 0.01 | 1 | 1014.7 |
| 20260904144002 | 80 | 219 | 2.0 | 5.0 | 0.00 | 0.01 | 0.01 | 1 | 1014.7 |
| 20260904143506 | 80 | 193 | 3.0 | 6.0 | 0.00 | 0.01 | 0.01 | 1 | 1014.6 |
| 20260904143502 | 80 | 226 | 3.0 | 6.0 | 0.00 | 0.01 | 0.01 | 1 | 1014.7 |
| 20260904142505 | 79 | 168 | 3.0 | 6.0 | 0.00 | 0.01 | 0.01 | 1 | 1014.7 |
| 20260904142500 | 79 | 203 | 3.0 | 6.0 | 0.00 | 0.01 | 0.01 | 1 | 1014.6 |
| 20260904141507 | 79 | 161 | 2.0 | 8.0 | 0.00 | 0.01 | 0.01 | 1 | 1014.7 |
| 20260904141503 | 78 | 132 | 2.0 | 8.0 | 0.00 | 0.01 | 0.01 | 1 | 1014.7 |
| 20260904140500 | 79 | 169 | 2.0 | 5.0 | 0.00 | 0.01 | 0.01 | 1 | 1014.6 |
| 20260904140001 | 79 | 196 | 2.0 | 5.0 | 0.00 | 0.01 | 0.01 | 1 | 1014.6 |
| 20260904135956 | 79 | 161 | 2.0 | 5.0 | 0.00 | 0.01 | 0.01 | 1 | 1014.6 |
| 20260904134956 | 78 | 155 | 2.0 | 5.0 | 0.00 | 0.01 | 0.01 | 1 | 1014.5 |
| 20260904134457 | 78 | 204 | 2.0 | 6.0 | 0.00 | 0.01 | 0.01 | 1 | 1014.5 |
| 20260904133957 | 78 | 173 | 2.0 | 7.0 | 0.00 | 0.01 | 0.01 | 1 | 1014.4 |
| 20260904133455 | 79 | 130 | 2.0 | 7.0 | 0.00 | 0.01 | 0.01 | 1 | 1014.3 |
| 20260904132954 | 79 | 206 | 2.0 | 6.0 | 0.00 | 0.01 | 0.01 | 1 | 1014.3 |
| 20260904132451 | 79 | 182 | 2.0 | 6.0 | 0.00 | 0.01 | 0.01 | 1 | 1014.4 |
| 20260904131950 | 79 | 179 | 1.0 | 6.0 | 0.00 | 0.01 | 0.01 | 1 | 1014.3 |
| 20260904131449 | 79 | 189 | 1.0 | 6.0 | 0.00 | 0.01 | 0.01 | 1 | 1014.3 |
| 20260904130950 | 79 | 182 | 1.0 | 4.0 | 0.00 | 0.01 | 0.01 | 1 | 1014.2 |
| 20260904130448 | 79 | 175 | 1.0 | 4.0 | 0.00 | 0.01 | 0.01 | 1 | 1014.2 |
| 20260904125947 | 79 | 157 | 1.0 | 4.0 | 0.00 | 0.01 | 0.01 | 1 | 1014.1 |
| 20260904125448 | 79 | 176 | 1.0 | 4.0 | 0.00 | 0.01 | 0.01 | 1 | 1013.9 |
| 20260904125444 | 79 | 177 | 1.0 | 3.0 | 0.00 | 0.01 | 0.01 | 1 | 1014.0 |
| 20260904125047 | 79 | 180 | 1.0 | 3.0 | 0.00 | 0.01 | 0.01 | 1 | 1013.9 |
| 20260904123941 | 79 | 177 | 1.0 | 4.0 | 0.00 | 0.01 | 0.01 | 1 | 1013.7 |
| 20260904123437 | 79 | 163 | 0.0 | 4.0 | 0.00 | 0.01 | 0.01 | 1 | 1013.6 |
| 20260904122935 | 79 | 174 | 0.0 | 1.0 | 0.00 | 0.01 | 0.01 | 1 | 1013.6 |
| 20260904122434 | 79 | 191 | 0.0 | 2.0 | 0.00 | 0.01 | 0.01 | 1 | 1013.6 |
| 20260904121938 | 79 | 191 | 1.0 | 4.0 | 0.00 | 0.01 | 0.01 | 1 | 1013.4 |
| 20260904121934 | 79 | 190 | 1.0 | 4.0 | 0.00 | 0.01 | 0.01 | 1 | 1013.4 |
| 20260904121539 | 79 | 160 | 2.0 | 6.0 | 0.00 | 0.01 | 0.01 | 1 | 1013.3 |
| 20260904121039 | 79 | 154 | 2.0 | 6.0 | 0.01 | 0.01 | 0.01 | 1 | 1013.2 |
| 20260904115934 | 79 | 153 | 2.0 | 5.0 | 0.01 | 0.01 | 0.01 | 1 | 1013.2 |
| 20260904115433 | 79 | 169 | 2.0 | 9.0 | 0.01 | 0.01 | 0.01 | 1 | 1013.1 |
| 20260904114932 | 79 | 188 | 2.0 | 9.0 | 0.01 | 0.01 | 0.01 | 1 | 1013.1 |
| 20260904114432 | 79 | 159 | 2.0 | 5.0 | 0.01 | 0.01 | 0.01 | 1 | 1013.0 |
| 20260904113934 | 79 | 193 | 2.0 | 8.0 | 0.01 | 0.01 | 0.01 | 1 | 1013.0 |
| 20260904113432 | 80 | 173 | 2.0 | 8.0 | 0.01 | 0.01 | 0.01 | 1 | 1013.0 |
| 20260904112930 | 80 | 165 | 2.0 | 5.0 | 0.01 | 0.01 | 0.01 | 1 | 1013.0 |
| 20260904112434 | 80 | 169 | 2.0 | 4.0 | 0.01 | 0.01 | 0.01 | 1 | 1013.1 |
| 20260904112430 | 80 | 171 | 1.0 | 4.0 | 0.01 | 0.01 | 0.01 | 1 | 1013.0 |
| 20260904111431 | 80 | 159 | 2.0 | 6.0 | 0.01 | 0.01 | 0.01 | 1 | 1012.9 |
| 20260904111427 | 80 | 163 | 3.0 | 6.0 | 0.01 | 0.01 | 0.01 | 1 | 1013.0 |
| 20260904110422 | 80 | 167 | 3.0 | 7.0 | 0.00 | 0.00 | 0.00 | 1 | 1013.0 |
| 20260904110027 | 80 | 169 | 2.0 | 10.0 | 0.00 | 0.00 | 0.00 | 1 | 1012.8 |
| 20260904105924 | 80 | 164 | 2.0 | 10.0 | 0.00 | 0.00 | 0.00 | 1 | 1012.9 |
| 20260904105920 | 80 | 167 | 2.0 | 7.0 | 0.00 | 0.00 | 0.00 | 1 | 1012.9 |
| 20260904104423 | 80 | 175 | 3.0 | 6.0 | 0.00 | 0.00 | 0.00 | 1 | 1012.9 |
| 20260904104419 | 80 | 190 | 2.0 | 8.0 | 0.00 | 0.00 | 0.00 | 1 | 1012.9 |
| 20260904103418 | 80 | 128 | 3.0 | 6.0 | 0.00 | 0.00 | 0.00 | 1 | 1013.0 |
| 20260904102917 | 80 | 214 | 3.0 | 6.0 | 0.00 | 0.00 | 0.00 | 1 | 1013.0 |
| 20260904102418 | 80 | 171 | 2.0 | 6.0 | 0.00 | 0.00 | 0.00 | 1 | 1012.9 |
| 20260904101918 | 80 | 186 | 3.0 | 9.0 | 0.00 | 0.00 | 0.00 | 1 | 1012.9 |
| 20260904101416 | 80 | 202 | 3.0 | 9.0 | 0.00 | 0.00 | 0.00 | 1 | 1012.8 |
| 20260904100916 | 80 | 175 | 3.0 | 9.0 | 0.00 | 0.00 | 0.00 | 1 | 1012.7 |
| 20260904100420 | 80 | 146 | 3.0 | 10.0 | 0.00 | 0.00 | 0.00 | 1 | 1012.6 |
| 20260904100416 | 80 | 155 | 3.0 | 8.0 | 0.00 | 0.00 | 0.00 | 1 | 1012.7 |
| 20260904095414 | 80 | 192 | 4.0 | 11.0 | 0.00 | 0.00 | 0.00 | 1 | 1012.5 |
| 20260904094914 | 80 | 226 | 4.0 | 11.0 | 0.00 | 0.00 | 0.00 | 1 | 1012.5 |
| 20260904094412 | 80 | 156 | 3.0 | 8.0 | 0.00 | 0.00 | 0.00 | 1 | 1012.5 |
| 20260904093914 | 80 | 196 | 3.0 | 8.0 | 0.00 | 0.00 | 0.00 | 1 | 1012.6 |
| 20260904093409 | 80 | 178 | 2.0 | 8.0 | 0.00 | 0.00 | 0.00 | 1 | 1012.6 |
| 20260904092909 | 80 | 211 | 1.0 | 8.0 | 0.00 | 0.00 | 0.00 | 1 | 1012.7 |
| 20260904092409 | 80 | 201 | 2.0 | 8.0 | 0.00 | 0.00 | 0.00 | 1 | 1012.7 |
| 20260904091909 | 80 | 207 | 3.0 | 8.0 | 0.00 | 0.00 | 0.00 | 1 | 1012.7 |
| 20260904091408 | 80 | 191 | 3.0 | 8.0 | 0.00 | 0.00 | 0.00 | 1 | 1012.6 |
| 20260904090906 | 80 | 190 | 2.0 | 8.0 | 0.00 | 0.00 | 0.00 | 1 | 1012.7 |
| 20260904090406 | 80 | 157 | 2.0 | 7.0 | 0.00 | 0.00 | 0.00 | 1 | 1012.6 |
| 20260904085905 | 80 | 141 | 2.0 | 7.0 | 0.00 | 0.00 | 0.00 | 1 | 1012.7 |
| 20260904085401 | 80 | 175 | 2.0 | 7.0 | 0.00 | 0.00 | 0.00 | 1 | 1012.7 |
| 20260904084905 | 80 | 146 | 2.0 | 7.0 | 0.00 | 0.00 | 0.00 | 1 | 1012.7 |
| 20260904084901 | 80 | 204 | 2.0 | 7.0 | 0.00 | 0.00 | 0.00 | 1 | 1012.7 |
| 20260904083902 | 80 | 155 | 2.0 | 7.0 | 0.00 | 0.00 | 0.00 | 1 | 1012.6 |
| 20260904083402 | 80 | 171 | 2.0 | 7.0 | 0.00 | 0.00 | 0.00 | 1 | 1012.6 |
| 20260904082902 | 80 | 135 | 3.0 | 8.0 | 0.00 | 0.00 | 0.00 | 1 | 1012.6 |
| 20260904082400 | 80 | 185 | 3.0 | 8.0 | 0.00 | 0.00 | 0.00 | 1 | 1012.6 |
| 20260904081859 | 80 | 139 | 2.0 | 7.0 | 0.00 | 0.00 | 0.00 | 1 | 1012.6 |
| 20260904081358 | 80 | 207 | 2.0 | 5.0 | 0.00 | 0.00 | 0.00 | 1 | 1012.6 |
| 20260904080901 | 80 | 144 | 2.0 | 5.0 | 0.00 | 0.00 | 0.00 | 1 | 1012.8 |
| 20260904080857 | 80 | 164 | 2.0 | 7.0 | 0.00 | 0.00 | 0.00 | 1 | 1012.7 |
| 20260904075853 | 80 | 157 | 3.0 | 7.0 | 0.00 | 0.00 | 0.00 | 1 | 1012.7 |
| 20260904075354 | 80 | 192 | 3.0 | 8.0 | 0.00 | 0.00 | 0.00 | 1 | 1012.8 |
| 20260904074857 | 80 | 188 | 2.0 | 8.0 | 0.00 | 0.00 | 0.00 | 1 | 1012.8 |
| 20260904074852 | 80 | 211 | 2.0 | 6.0 | 0.00 | 0.00 | 0.00 | 1 | 1012.7 |
| 20260904074456 | 80 | 157 | 2.0 | 6.0 | 0.00 | 0.00 | 0.00 | 1 | 1012.7 |
| 20260904073359 | 80 | 155 | 2.0 | 6.0 | 0.00 | 0.00 | 0.00 | 1 | 1012.7 |
| 20260904073353 | 80 | 208 | 2.0 | 6.0 | 0.00 | 0.00 | 0.00 | 1 | 1012.7 |
| 20260904072351 | 80 | 160 | 2.0 | 6.0 | 0.00 | 0.00 | 0.00 | 1 | 1012.7 |
| 20260904071850 | 80 | 184 | 2.0 | 7.0 | 0.00 | 0.00 | 0.00 | 1 | 1012.8 |
| 20260904071350 | 80 | 134 | 3.0 | 8.0 | 0.00 | 0.00 | 0.00 | 1 | 1012.8 |
| 20260904070849 | 80 | 190 | 4.0 | 9.0 | 0.00 | 0.00 | 0.00 | 1 | 1012.8 |
| 20260904070349 | 80 | 141 | 4.0 | 9.0 | 0.00 | 0.00 | 0.00 | 1 | 1012.7 |
| 20260904065847 | 80 | 194 | 3.0 | 9.0 | 0.00 | 0.00 | 0.00 | 1 | 1012.8 |
| 20260904065347 | 80 | 181 | 3.0 | 9.0 | 0.00 | 0.00 | 0.00 | 1 | 1012.8 |
| 20260904064845 | 80 | 156 | 3.0 | 9.0 | 0.00 | 0.00 | 0.00 | 1 | 1012.8 |
| 20260904064348 | 79 | 159 | 2.0 | 10.0 | 0.00 | 0.00 | 0.00 | 1 | 1013.0 |
| 20260904064344 | 80 | 173 | 2.0 | 10.0 | 0.00 | 0.00 | 0.00 | 1 | 1012.9 |
| 20260904063344 | 79 | 139 | 1.0 | 6.0 | 0.00 | 0.00 | 0.00 | 1 | 1013.0 |
| 20260904062847 | 79 | 196 | 1.0 | 6.0 | 0.00 | 0.00 | 0.00 | 1 | 1012.9 |
| 20260904062843 | 79 | 230 | 1.0 | 6.0 | 0.00 | 0.00 | 0.00 | 1 | 1013.0 |
| 20260904061843 | 79 | 104 | 1.0 | 5.0 | 0.00 | 0.00 | 0.00 | 1 | 1012.9 |
| 20260904061343 | 79 | 169 | 2.0 | 5.0 | 0.00 | 0.00 | 0.00 | 1 | 1012.9 |
| 20260904060843 | 79 | 156 | 2.0 | 6.0 | 0.00 | 0.00 | 0.00 | 1 | 1012.9 |
| 20260904060344 | 79 | 150 | 2.0 | 6.0 | 0.00 | 0.00 | 0.00 | 1 | 1012.9 |
| 20260904055848 | 79 | 182 | 1.0 | 5.0 | 0.00 | 0.00 | 0.00 | 1 | 1013.0 |
| 20260904055844 | 79 | 119 | 1.0 | 4.0 | 0.00 | 0.00 | 0.00 | 1 | 1012.9 |
| 20260904054843 | 79 | 183 | 1.0 | 5.0 | 0.00 | 0.00 | 0.00 | 1 | 1013.1 |
| 20260904054343 | 79 | 116 | 0.0 | 3.0 | 0.00 | 0.00 | 0.00 | 1 | 1013.0 |
| 20260904053844 | 79 | 155 | 0.0 | 3.0 | 0.00 | 0.00 | 0.00 | 1 | 1012.9 |
| 20260904053342 | 79 | 142 | 1.0 | 3.0 | 0.00 | 0.00 | 0.00 | 1 | 1012.9 |
| 20260904052842 | 79 | 150 | 0.0 | 2.0 | 0.00 | 0.00 | 0.00 | 1 | 1013.0 |
| 20260904052341 | 79 | 115 | 0.0 | 2.0 | 0.00 | 0.00 | 0.00 | 1 | 1013.0 |
| 20260904051839 | 79 | 148 | 1.0 | 4.0 | 0.00 | 0.00 | 0.00 | 1 | 1012.9 |
| 20260904051339 | 79 | 169 | 1.0 | 4.0 | 0.00 | 0.00 | 0.00 | 1 | 1012.9 |
| 20260904050840 | 79 | 126 | 1.0 | 4.0 | 0.00 | 0.00 | 0.00 | 1 | 1012.8 |
| 20260904050338 | 79 | 118 | 1.0 | 4.0 | 0.00 | 0.00 | 0.00 | 1 | 1012.9 |
| 20260904045841 | 79 | 131 | 1.0 | 3.0 | 0.00 | 0.00 | 0.00 | 1 | 1012.9 |
| 20260904045837 | 79 | 171 | 1.0 | 4.0 | 0.00 | 0.00 | 0.00 | 1 | 1012.9 |
| 20260904044837 | 79 | 180 | 0.0 | 2.0 | 0.00 | 0.00 | 0.00 | 1 | 1013.0 |
| 20260904044340 | 79 | 165 | 1.0 | 3.0 | 0.00 | 0.00 | 0.00 | 1 | 1013.0 |
| 20260904044336 | 79 | 165 | 0.0 | 3.0 | 0.00 | 0.00 | 0.00 | 1 | 1013.0 |
| 20260904043336 | 79 | 105 | 0.0 | 2.0 | 0.00 | 0.00 | 0.00 | 1 | 1012.9 |
| 20260904042837 | 79 | 49 | 0.0 | 2.0 | 0.00 | 0.00 | 0.00 | 1 | 1012.8 |
| 20260904042337 | 79 | 69 | 0.0 | 4.0 | 0.00 | 0.00 | 0.00 | 1 | 1012.9 |
| 20260904041836 | 79 | 151 | 1.0 | 4.0 | 0.00 | 0.00 | 0.00 | 1 | 1012.9 |
| 20260904041337 | 79 | 134 | 0.0 | 3.0 | 0.00 | 0.00 | 0.00 | 1 | 1012.9 |
| 20260904040837 | 79 | 157 | 1.0 | 3.0 | 0.00 | 0.00 | 0.00 | 1 | 1012.8 |
| 20260904040337 | 80 | 139 | 1.0 | 2.0 | 0.00 | 0.00 | 0.00 | 1 | 1012.8 |
| 20260904035837 | 80 | 101 | 1.0 | 3.0 | 0.00 | 0.00 | 0.00 | 1 | 1012.7 |
| 20260904035337 | 80 | 121 | 0.0 | 3.0 | 0.00 | 0.00 | 0.00 | 1 | 1012.7 |
| 20260904034836 | 80 | 154 | 1.0 | 3.0 | 0.00 | 0.00 | 0.00 | 1 | 1012.6 |
| 20260904034341 | 80 | 145 | 1.0 | 3.0 | 0.00 | 0.00 | 0.00 | 1 | 1012.8 |
| 20260904034337 | 80 | 126 | 1.0 | 3.0 | 0.00 | 0.00 | 0.00 | 1 | 1012.7 |
| 20260904033336 | 80 | 215 | 1.0 | 3.0 | 0.00 | 0.00 | 0.00 | 1 | 1012.8 |
| 20260904032836 | 80 | 139 | 1.0 | 3.0 | 0.00 | 0.00 | 0.00 | 1 | 1012.9 |